Weather History for Memphis, TN

Change the Weather History Date:

Monday, November 19, 2012

  Actual Average Record
Temperature  
Mean Temperature 53 °F 52 °F  
Max Temperature 67 °F 61 °F 81 °F (1942)
Min Temperature 39 °F 43 °F 16 °F (1880)
Degree Days  
Heating Degree Days 12 13  
Month to date heating degree days 231 196  
Since 1 July heating degree days 393 327  
Cooling Degree Days 0 0  
Month to date cooling degree days 4 11  
Year to date cooling degree days 2613 2254  
Growing Degree Days 2 (Base 50)    
Moisture  
Dew Point 39 °F    
Average Humidity 60    
Maximum Humidity 85    
Minimum Humidity 34    
Precipitation  
Precipitation 0.00 in 0.20 in 5.65 in (1988)
Month to date precipitation 2.20 3.24  
Year to date precipitation 32.47 45.69  
Snow  
Snow 0.00 in 0.00 in T in (1969)
Month to date snowfall 0.0 0.0  
Since 1 July snowfall 0.0 0.0  
Since 1 September snowfall 0.0 0.0  
Snow Depth 0.00 in    
Sea Level Pressure  
Sea Level Pressure 30.26 in    
Wind  
Wind Speed 1 mph (SW)    
Max Wind Speed 8 mph    
Max Gust Speed 12 mph    
Visibility 10 miles    
Events      
T = Trace of Precipitation, MM = Missing Value Source: NWS Daily Summary

Daily Weather History Graph

Daily Weather History Graph

Search for Another Location

Airport:

Trip Planner

Search our weather history database for the weather conditions in past years. The results will help you decide how hot, cold, wet, or windy it might be!

Date:

Astronomy

Nov. 19, 2012 Rise Set
Actual Time 6:38 AM CST 4:51 PM CST
Civil Twilight 6:11 AM CST 5:18 PM CST
Nautical Twilight 5:40 AM CST 5:49 PM CST
Astronomical Twilight 5:10 AM CST 6:19 PM CST
Moon 11:46 AM CST (11/19) 11:12 PM CST (11/19)
Length of Visible Light 11h 07m
Length of Day
10h 12m
Waxing Crescent, 41% of the Moon is Illuminated
Nov 19
Waxing Crescent
Nov 20
First Quarter
Nov 28
Full
Dec 6
Last Quarter
Dec 13
New

Hourly Weather History & Observations

Time (CST) Temp. Windchill Dew Point Humidity Pressure Visibility Wind Dir Wind Speed Gust Speed Precip Events Conditions
12:54 AM 46.0 °F - 37.9 °F 73% 30.31 in 10.0 mi Calm Calm - N/A   Mostly Cloudy
1:54 AM 44.1 °F - 37.0 °F 76% 30.30 in 10.0 mi Calm Calm - N/A   Partly Cloudy
2:54 AM 41.0 °F - 36.0 °F 82% 30.30 in 10.0 mi Calm Calm - N/A   Partly Cloudy
3:54 AM 42.1 °F - 36.0 °F 79% 30.28 in 10.0 mi Calm Calm - N/A   Partly Cloudy
4:54 AM 41.0 °F 39.0 °F 35.1 °F 79% 30.30 in 10.0 mi East 3.5 mph - N/A   Partly Cloudy
5:54 AM 41.0 °F - 35.1 °F 79% 30.30 in 10.0 mi Calm Calm - N/A   Partly Cloudy
6:54 AM 39.9 °F - 35.1 °F 83% 30.30 in 10.0 mi Calm Calm - N/A   Partly Cloudy
7:54 AM 46.0 °F - 37.9 °F 73% 30.31 in 10.0 mi Calm Calm - N/A   Scattered Clouds
8:54 AM 52.0 °F - 37.9 °F 59% 30.33 in 10.0 mi Calm Calm - N/A   Partly Cloudy
9:54 AM 59.0 °F - 39.0 °F 48% 30.32 in 10.0 mi Calm Calm - N/A   Partly Cloudy
10:54 AM 64.0 °F - 37.9 °F 38% 30.32 in 10.0 mi WNW 3.5 mph - N/A   Partly Cloudy
11:54 AM 66.0 °F - 37.9 °F 36% 30.28 in 10.0 mi WNW 3.5 mph - N/A   Partly Cloudy
12:54 PM 64.9 °F - 39.0 °F 39% 30.26 in 10.0 mi Variable 3.5 mph - N/A   Mostly Cloudy
1:54 PM 66.9 °F - 39.0 °F 36% 30.22 in 10.0 mi SSW 3.5 mph - N/A   Scattered Clouds
2:54 PM 66.0 °F - 37.9 °F 36% 30.21 in 10.0 mi Calm Calm - N/A   Partly Cloudy
3:54 PM 64.9 °F - 39.0 °F 39% 30.20 in 10.0 mi Calm Calm - N/A   Scattered Clouds
4:54 PM 61.0 °F - 39.0 °F 44% 30.21 in 10.0 mi WSW 3.5 mph - N/A   Scattered Clouds
5:54 PM 57.0 °F - 41.0 °F 55% 30.22 in 10.0 mi Calm Calm - N/A   Scattered Clouds
6:54 PM 57.0 °F - 41.0 °F 55% 30.20 in 10.0 mi SSE 3.5 mph - N/A   Scattered Clouds
7:54 PM 54.0 °F - 42.1 °F 64% 30.21 in 10.0 mi Calm Calm - N/A   Mostly Cloudy
8:54 PM 53.6 °F - 42.8 °F 67% 30.22 in 10.0 mi Calm Calm - N/A   Mostly Cloudy
9:54 PM 52.0 °F - 44.1 °F 74% 30.19 in 10.0 mi South 5.8 mph - N/A   Mostly Cloudy
10:54 PM 53.1 °F - 43.0 °F 69% 30.20 in 10.0 mi Calm Calm - N/A   Mostly Cloudy
11:54 PM 52.0 °F - 43.0 °F 71% 30.19 in 10.0 mi Calm Calm - N/A   Mostly Cloudy